Weather History for Oujda, Morocco

Change the Weather History Date:

Thursday, October 4, 2012

  Actual Average Record
Temperature  
Mean Temperature 71 °F -  
Max Temperature 82 °F 75 °F 95 °F (2001)
Min Temperature 60 °F 52 °F 48 °F (1996)
Cooling Degree Days 6    
Growing Degree Days 21 (Base 50)    
Moisture  
Dew Point 63 °F    
Average Humidity 83    
Maximum Humidity 100    
Minimum Humidity 42    
Precipitation  
Precipitation 0.00 in 0.04 in - ()
Sea Level Pressure  
Sea Level Pressure 30.01 in    
Wind  
Wind Speed 6 mph ()    
Max Wind Speed 22 mph    
Max Gust Speed -    
Visibility 4.3 miles    
Events Fog    
Averages and records for this station are not official NWS values.
T = Trace of Precipitation, MM = Missing Value Source: Averaged Metar Reports

Daily Weather History Graph

Daily Weather History Graph

Search for Another Location

Airport:

Trip Planner

Search our weather history database for the weather conditions in past years. The results will help you decide how hot, cold, wet, or windy it might be!

Date:

Astronomy

Oct. 04, 2012 Rise Set
Actual Time 6:04 AM WET 5:47 PM WET
Civil Twilight 5:39 AM WET 6:12 PM WET
Nautical Twilight 5:10 AM WET 6:41 PM WET
Astronomical Twilight 4:41 AM WET 7:10 PM WET
Moon 8:22 PM WET (10/4) 9:58 AM WET (10/4)
Length of Visible Light 12h 32m
Length of Day
11h 42m
Waning Gibbous, 83% of the Moon is Illuminated
Oct 4
Waning Gibbous
Oct 8
Last Quarter
Oct 15
New
Oct 22
First Quarter
Oct 29
Full

Hourly Weather History & Observations

Time (WET) Temp. Heat Index Dew Point Humidity Pressure Visibility Wind Dir Wind Speed Gust Speed Precip Events Conditions
12:00 AM 65 °F - 62 °F 86% 30.02 in 9 mi WNW 3.5 mph - -   Scattered Clouds
12:00 AM 64.4 °F - 62.6 °F 94% 30.06 in 6.2 mi WNW 3.5 mph - N/A   Partly Cloudy
1:00 AM 64.4 °F - 60.8 °F 88% 30.04 in 6.2 mi Variable 2.3 mph - N/A   Partly Cloudy
2:00 AM 64.4 °F - 62.6 °F 94% 30.04 in 6.2 mi NNE 4.6 mph - N/A   Partly Cloudy
3:00 AM 62.6 °F - 60.8 °F 94% 30.01 in 0.4 mi NW 4.6 mph - N/A Fog Fog
3:09 AM 62.6 °F - 60.8 °F 94% 30.01 in 0.4 mi NNW 4.6 mph - N/A Fog Fog
4:00 AM 62.6 °F - 62.6 °F 100% 30.01 in 0.4 mi North 6.9 mph - N/A Fog Fog
4:45 AM 62.6 °F - 62.6 °F 100% 30.01 in 0.6 mi North 4.6 mph - N/A Fog Fog
5:00 AM 62.6 °F - 62.6 °F 100% 30.01 in 0.6 mi North 4.6 mph - N/A Fog Fog
6:00 AM 62.6 °F - 62.6 °F 100% 30.04 in 0.2 mi NNW 3.5 mph - N/A Fog Fog
6:44 AM 60.8 °F - 60.8 °F 100% 30.01 in 0.1 mi NW 4.6 mph - N/A Fog Fog
7:00 AM 60.8 °F - 60.8 °F 100% 30.04 in 0.1 mi NW 4.6 mph - N/A Fog Fog
7:55 AM 62.6 °F - 62.6 °F 100% 30.04 in 0.9 mi Variable 2.3 mph - N/A   Scattered Clouds
8:15 AM 64.4 °F - 64.4 °F 100% 30.04 in 3.1 mi North 4.6 mph - N/A   Scattered Clouds
9:00 AM 67 °F - 67 °F 99% 29.99 in 5 mi North 6.9 mph - -   Scattered Clouds
9:00 AM 66.2 °F - 66.2 °F 100% 30.04 in 5.0 mi North 6.9 mph - N/A   Partly Cloudy
10:00 AM 75.2 °F - 62.6 °F 65% 30.04 in - North 8.1 mph - N/A   Clear
12:00 PM 82 °F - 62 °F 42% 29.90 in 9 mi North 18.4 mph - -   Partly Cloudy
12:00 PM 82.4 °F 83.4 °F 62.6 °F 51% 29.98 in - North 18.4 mph - N/A   Clear
1:00 PM 80.6 °F 81.8 °F 62.6 °F 54% 29.98 in 6.2 mi North 21.9 mph - N/A   Scattered Clouds
2:00 PM 80.6 °F 82.3 °F 64.4 °F 58% 29.95 in 6.2 mi North 19.6 mph - N/A   Scattered Clouds
2:49 PM 78 °F - 64 °F 53% 29.88 in 9 mi North 18.4 mph - -   Scattered Clouds
3:00 PM 78.8 °F - 64.4 °F 61% 29.98 in 6.2 mi North 18.4 mph - N/A   Mostly Cloudy
5:00 PM 77.0 °F - 62.6 °F 61% 29.98 in 6.2 mi North 13.8 mph - N/A   Scattered Clouds
8:00 PM 68.0 °F - 62.6 °F 83% 30.01 in 6.2 mi North 4.6 mph - N/A   Scattered Clouds
9:00 PM 67 °F - 62 °F 79% 29.99 in 6 mi West 1.2 mph - -   Scattered Clouds
9:00 PM 66.2 °F - 62.6 °F 88% 30.04 in 6.2 mi Variable 1.2 mph - N/A   Scattered Clouds
11:00 PM 66.2 °F - 60.8 °F 83% 30.01 in 6.2 mi Calm Calm - N/A   Scattered Clouds